Location: Musselshell
(46.5176°N, 108.0911°W)
Time: 21:37:33
(UTC+00:00)

AO-91 - Pass Details

Date: 26 June 2022
Orbit: 450 x 797 km, 97.7° (Epoch: 13 August)

Event Time Altitude Azimuth Distance (km) Brightness Sun altitude
Rises 05:46:46 0° 17° (NNE) 2,619 ? -17.3°
Reaches altitude 10° 05:48:58 10° 23° (NNE) 1,687 ? -17.4°
Maximum altitude 05:52:27 50° 100° (E) 608 ? -17.7°
Enters shadow 05:52:57 45° 130° (SE) 644 ? -17.7°
